[[{"header":{"parameterUnit":"m.s-1","parameterCategory":1,"la1":30.2991,"la2":30.254,"lo1":-89.0895,"lo2":-89.0444,"dy":0.0017,"dx":0.0017,"nx":28,"ny":28,"refTime":"2025-06-20T09:00:00:Z","depth":0,"parameterNumber":2,"parameterNumberName":"U-component_of_WINDS"},"data":[0,0,0,0,0,0,0,0,0,0,0,0,0,0,0,0,0,0,0,0,0,0,0,0,0,0,0,0,0,0,0,0,0,0,0,0,0,0,0,0,0,0,0,0,0,0,0,0,0,0,0,0,0,0,0,0,0,0,-2.0946,-2.0946,0,-2.088,-2.088,-2.0879,-2.0807,-2.0806,-2.0805,-2.0804,-2.0736,-2.0735,-2.0735,0,0,0,0,0,0,0,0,0,0,0,0,0,-2.101,-2.1009,-2.0947,-2.0946,-2.0945,-2.0881,-2.088,-2.0879,-2.0807,-2.0806,-2.0805,-2.0804,-2.0737,-2.0736,-2.0735,0,0,0,0,0,0,0,0,0,0,0,0,0,-2.0967,-2.1009,-2.0947,-2.0902,-2.0897,-2.0881,-2.088,-2.0878,-2.0808,-2.0806,-2.0805,-2.0803,-2.0737,-2.0736,-2.0734,-2.0757,0,0,-2.073,-2.073,0,0,0,0,0,0,0,0,-2.097,-2.0965,-2.0909,-2.0905,-2.0899,-2.085,-2.0877,-2.0838,-2.0808,-2.0842,-2.0804,-2.0802,-2.0775,-2.0771,-2.0762,-2.0754,-2.0751,-2.073,-2.073,-2.0729,-2.0729,0,0,0,0,0,0,0,-2.0973,-2.0967,-2.092,-2.0908,-2.0902,-2.0884,-2.0876,-2.0869,-2.0818,-2.0839,-2.0833,-2.0826,-2.0773,-2.0763,-2.076,-2.075,-2.073,-2.0729,-2.0728,-2.0728,-2.0755,-2.0756,0,0,0,0,0,0,-2.0983,-2.097,-2.0922,-2.0918,-2.0931,-2.0884,-2.0876,-2.0868,-2.0818,-2.0809,-2.0828,-2.0823,-2.0766,-2.0761,-2.0757,-2.0778,-2.0729,-2.0728,-2.0727,-2.0753,-2.0755,-2.0757,0,0,0,0,0,0,-2.0984,-2.0979,-2.0925,-2.0943,-2.0935,-2.0885,-2.0877,-2.0867,-2.0858,-2.081,-2.08,-2.0828,-2.0765,-2.0759,-2.0757,-2.0775,-2.0727,-2.0726,-2.0752,-2.0754,-2.0756,-2.0821,0,0,0,0,0,0,-2.0986,-2.098,-2.0988,-2.0944,-2.0934,-2.0927,-2.0878,-2.0867,-2.0856,-2.0849,-2.0807,-2.0799,-2.0763,-2.0759,-2.0756,-2.0772,-2.0725,-2.075,-2.0753,-2.0755,-2.0817,-2.0826,-2.0833,0,0,0,0,0,-2.0989,-2.101,-2.0989,-2.0984,-2.0943,-2.0928,-2.0922,-2.0881,-2.0858,-2.0865,-2.0834,-2.08,-2.0774,-2.076,-2.0755,-2.0771,-2.0748,-2.0752,-2.0755,-2.0814,-2.0824,-2.0832,0,0,0,0,0,0,-2.1058,-2.1003,-2.098,-2.0987,-2.0963,-2.0916,-2.0924,-2.0893,-2.0875,-2.087,-2.082,-2.0811,-2.0814,-2.0793,-2.0778,-2.0789,-2.0756,-2.0759,-2.0803,-2.0812,-2.0819,-2.0823,-2.0724,0,0,0,0,0,-2.1075,-2.1067,-2.1019,-2.103,-2.1019,-2.0974,-2.0966,-2.0936,-2.0909,-2.0898,-2.0867,-2.0841,-2.0827,-2.0819,-2.0803,-2.0815,-2.0803,-2.0824,-2.0831,-2.0838,-2.084,-2.0841,-2.0849,-2.0768,-2.0768,-2.0768,0,0,-2.1108,-2.1077,-2.1075,-2.1043,-2.1021,-2.1013,-2.0966,-2.096,-2.0953,-2.0897,-2.0892,-2.0869,-2.0837,-2.0842,-2.0842,-2.0824,-2.086,-2.0842,-2.0848,-2.0846,-2.0846,-2.0853,-2.086,-2.077,-2.0769,-2.0769,0,0,-2.1164,-2.1141,-2.1146,-2.1124,-2.1091,-2.1061,-2.1062,-2.102,-2.1002,-2.0997,-2.0954,-2.0945,-2.0923,-2.0901,-2.0887,-2.0934,-2.0901,-2.0931,-2.0969,-2.0972,-2.0978,-2.0983,-2.0997,-2.1003,-2.0933,-2.0934,-2.0934,0,-2.1209,-2.1195,-2.1153,-2.1149,-2.1135,-2.1084,-2.1088,-2.107,-2.1033,-2.1025,-2.1006,-2.0974,-2.095,-2.0947,-2.0958,-2.095,-2.0948,-2.0934,-2.0981,-2.0986,-2.099,-2.1003,-2.1008,-2.0937,-2.0937,-2.0936,-2.0936,0,-2.1251,-2.1243,-2.1251,-2.1216,-2.1204,-2.1205,-2.1161,-2.1154,-2.1126,-2.1097,-2.1092,-2.106,-2.1036,-2.1034,-2.1007,-2.1027,-2.1016,-2.099,-2.0955,-2.1002,-2.1013,-2.1018,-2.0942,-2.0941,-2.094,-2.0939,0,0,-2.1347,-2.1288,-2.1292,-2.1274,-2.1234,-2.1226,-2.1224,-2.1201,-2.1194,-2.1171,-2.1166,-2.1148,-2.1123,-2.1107,-2.1077,-2.108,-2.1115,-2.1052,-2.1051,-2.1062,-2.1132,-2.115,-2.1156,-2.1095,-2.1095,-2.1096,-2.1134,0,-2.1393,-2.1385,-2.1347,-2.135,-2.134,-2.1292,-2.129,-2.1264,-2.1238,-2.1226,-2.1197,-2.1183,-2.1152,-2.1142,-2.1143,-2.1111,-2.1128,-2.1108,-2.1088,-2.1087,-2.1094,-2.1163,-2.1182,-2.1219,-2.1138,-2.1139,-2.1139,0,-2.1445,-2.1424,-2.1427,-2.1385,-2.1379,-2.1378,-2.1352,-2.1342,-2.1312,-2.1292,-2.1274,-2.1241,-2.1234,-2.1204,-2.1193,-2.118,-2.117,-2.1153,-2.1154,-2.1148,-2.1114,-2.1155,-2.123,-2.1234,-2.1146,-2.1146,-2.1145,0,-2.1511,-2.1484,-2.1481,-2.1468,-2.142,-2.142,-2.14,-2.1368,-2.1356,-2.1334,-2.1325,-2.1303,-2.129,-2.1273,-2.1234,-2.1216,-2.1227,-2.1194,-2.1209,-2.121,-2.1211,-2.1211,-2.1281,-2.121,-2.121,-2.121,-2.1209,0,-2.1565,-2.1567,-2.151,-2.1508,-2.1509,-2.1464,-2.1466,-2.1442,-2.1414,-2.1405,-2.1364,-2.1357,-2.1307,-2.1293,-2.1263,-2.1257,-2.1253,-2.1235,-2.1226,-2.1237,-2.1239,-2.1227,-2.1223,-2.1211,-2.1211,-2.121,-2.121,0,-2.1637,-2.1599,-2.1592,-2.1547,-2.1536,-2.1538,-2.1499,-2.1495,-2.1466,-2.1456,-2.1451,-2.1406,-2.1388,-2.1348,-2.132,-2.1299,-2.13,-2.1287,-2.131,-2.1304,-2.132,-2.1318,-2.1383,-2.1388,-2.1317,-2.1317,-2.1318,0,-2.1672,-2.1672,-2.1627,-2.1619,-2.16,-2.1587,-2.1574,-2.1531,-2.1519,-2.1484,-2.1484,-2.1463,-2.1443,-2.1417,-2.1381,-2.1359,-2.1342,-2.1367,-2.1339,-2.1348,-2.1339,-2.1338,-2.1336,-2.1372,-2.1373,-2.1374,-2.1375,0,-2.1737,-2.1718,-2.1701,-2.1678,-2.1663,-2.1643,-2.162,-2.1615,-2.1566,-2.1555,-2.1536,-2.1521,-2.1492,-2.147,-2.1443,-2.1421,-2.1389,-2.1384,-2.1386,-2.1395,-2.1407,-2.1398,-2.1324,-2.1382,-2.1381,-2.1381,-2.1381,-2.138,-2.1789,-2.1787,-2.1754,-2.1736,-2.1715,-2.1694,-2.1687,-2.1657,-2.1641,-2.1613,-2.1589,-2.1572,-2.1541,-2.15,-2.1481,-2.1466,-2.145,-2.1453,-2.1453,-2.1454,-2.1457,-2.1413,-2.1461,-2.1461,-2.1461,-2.146,-2.146,0,-2.185,-2.1826,-2.1811,-2.1779,-2.1765,-2.1738,-2.1711,-2.17,-2.1686,-2.1659,-2.1641,-2.1618,-2.1597,-2.156,-2.1536,-2.1531,-2.1515,-2.1526,-2.1524,-2.1519,-2.1474,-2.1474,-2.1538,-2.1538,-2.1538,-2.1538,-2.1538,-2.1538,-2.1879,-2.1872,-2.185,-2.1831,-2.1808,-2.1791,-2.1777,-2.1757,-2.1736,-2.1712,-2.1695,-2.1671,-2.1639,-2.1612,-2.1591,-2.1581,-2.1572,-2.1587,-2.1571,-2.153,-2.1522,-2.1515,-2.1514,-2.1586,-2.1586,-2.1616,-2.1617,-2.1617]},{"header":{"parameterUnit":"m.s-1","parameterCategory":1,"la1":30.2991,"la2":30.254,"lo1":-89.0895,"lo2":-89.0444,"dy":0.0017,"dx":0.0017,"nx":28,"ny":28,"refTime":"2025-06-20T09:00:00:Z","depth":0,"parameterNumber":3,"parameterNumberName":"V-component_of_WINDS"},"data":[0,0,0,0,0,0,0,0,0,0,0,0,0,0,0,0,0,0,0,0,0,0,0,0,0,0,0,0,0,0,0,0,0,0,0,0,0,0,0,0,0,0,0,0,0,0,0,0,0,0,0,0,0,0,0,0,0,0,0.8859,0.8858,0,0.8744,0.8742,0.8741,0.8683,0.8683,0.8683,0.8683,0.856,0.8557,0.8554,0,0,0,0,0,0,0,0,0,0,0,0,0,0.9026,0.9023,0.8859,0.8858,0.8856,0.8744,0.8742,0.8741,0.8683,0.8683,0.8683,0.8683,0.8561,0.8557,0.8553,0,0,0,0,0,0,0,0,0,0,0,0,0,0.8936,0.9022,0.886,0.8814,0.8809,0.8744,0.8742,0.874,0.8683,0.8683,0.8683,0.8683,0.8562,0.8558,0.8553,0.8523,0,0,0.8538,0.8536,0,0,0,0,0,0,0,0,0.8941,0.893,0.8822,0.8817,0.8811,0.8728,0.8756,0.8667,0.8683,0.8731,0.8683,0.8683,0.8615,0.8606,0.8584,0.8517,0.8512,0.8537,0.8534,0.8532,0.8531,0,0,0,0,0,0,0,0.8947,0.8935,0.8813,0.8821,0.8814,0.8798,0.8785,0.8739,0.8674,0.8727,0.8722,0.8709,0.8612,0.8589,0.8581,0.851,0.8537,0.8533,0.853,0.8528,0.8411,0.8411,0,0,0,0,0,0,0.8962,0.894,0.8817,0.881,0.8878,0.8795,0.8781,0.8755,0.8675,0.8663,0.871,0.8707,0.8598,0.8587,0.8577,0.8536,0.8532,0.8528,0.8525,0.8412,0.8411,0.8411,0,0,0,0,0,0,0.8965,0.8951,0.8822,0.8874,0.8856,0.8792,0.8763,0.8752,0.8729,0.8662,0.865,0.8698,0.8597,0.8583,0.8537,0.8531,0.8525,0.8521,0.8412,0.8411,0.8411,0.8455,0,0,0,0,0,0,0.897,0.8953,0.8942,0.8874,0.8854,0.8785,0.8763,0.875,0.8721,0.8717,0.8648,0.8636,0.8596,0.8544,0.8532,0.8524,0.8517,0.8412,0.8412,0.8411,0.8454,0.8456,0.8459,0,0,0,0,0,0.8977,0.8958,0.8942,0.8927,0.8839,0.8785,0.8773,0.8729,0.8721,0.8709,0.8666,0.8639,0.8534,0.854,0.8526,0.8516,0.8412,0.8412,0.8411,0.8453,0.8456,0.8459,0,0,0,0,0,0,0.9025,0.8948,0.8929,0.8889,0.8844,0.8776,0.8759,0.8733,0.8689,0.8687,0.8632,0.8616,0.8575,0.854,0.8549,0.8483,0.847,0.8467,0.8507,0.8509,0.8511,0.852,0.8513,0,0,0,0,0,0.9032,0.8996,0.893,0.89,0.8879,0.8823,0.8798,0.8768,0.8719,0.8699,0.8652,0.8605,0.8561,0.8533,0.8489,0.8449,0.8432,0.8435,0.8437,0.844,0.8437,0.8413,0.8413,0.841,0.841,0.841,0,0,0.9044,0.8997,0.8978,0.8909,0.8871,0.8834,0.8807,0.8769,0.8741,0.8693,0.8646,0.861,0.8553,0.851,0.8488,0.848,0.8435,0.8439,0.8441,0.8438,0.8413,0.8413,0.8413,0.841,0.841,0.841,0,0,0.9047,0.9009,0.898,0.8942,0.8886,0.8848,0.8842,0.8777,0.8752,0.8705,0.8668,0.8632,0.8558,0.8519,0.8489,0.8478,0.8451,0.8465,0.8477,0.8454,0.8454,0.8454,0.8449,0.8449,0.8463,0.8463,0.8463,0,0.9069,0.9013,0.8967,0.8932,0.8902,0.8858,0.8828,0.8793,0.8724,0.8704,0.8697,0.8603,0.8561,0.8508,0.8505,0.8483,0.8472,0.8472,0.8458,0.8457,0.8457,0.8452,0.845,0.8465,0.8465,0.8464,0.8464,0,0.9042,0.9004,0.8987,0.8924,0.8892,0.8859,0.8808,0.8781,0.8753,0.8716,0.8668,0.8617,0.8562,0.8547,0.8519,0.8489,0.8486,0.8469,0.8455,0.846,0.8454,0.8452,0.8468,0.8467,0.8466,0.8466,0,0,0.9073,0.8985,0.898,0.895,0.8885,0.8853,0.8818,0.8766,0.8743,0.8697,0.8665,0.8604,0.8588,0.8554,0.8521,0.8501,0.8495,0.8486,0.8484,0.8489,0.8458,0.8472,0.847,0.8477,0.8476,0.8476,0.8463,0,0.9067,0.9003,0.8961,0.8913,0.8877,0.8835,0.8804,0.8759,0.8724,0.8687,0.8647,0.8604,0.8586,0.8566,0.8544,0.85,0.8488,0.8501,0.8445,0.8444,0.8461,0.8467,0.8481,0.8472,0.8461,0.846,0.846,0,0.9051,0.9008,0.8957,0.8896,0.8879,0.8852,0.88,0.8766,0.8714,0.8689,0.8653,0.8619,0.8578,0.8569,0.8511,0.8521,0.8495,0.8471,0.8469,0.8462,0.8452,0.846,0.8468,0.8467,0.8456,0.8456,0.8457,0,0.9078,0.9007,0.8968,0.8944,0.8871,0.8853,0.8821,0.877,0.8741,0.8695,0.8676,0.8625,0.8598,0.8559,0.8512,0.8509,0.8459,0.8445,0.8437,0.8438,0.8428,0.8429,0.8431,0.8412,0.8412,0.8412,0.8412,0,0.9076,0.9046,0.8979,0.8955,0.892,0.8871,0.8838,0.8802,0.8757,0.8724,0.8683,0.8653,0.8594,0.8555,0.8518,0.8476,0.8464,0.8442,0.8432,0.8445,0.8448,0.8428,0.8427,0.8412,0.8412,0.8412,0.8412,0,0.91,0.9054,0.9008,0.8944,0.8926,0.8904,0.8847,0.8821,0.8784,0.8743,0.873,0.8671,0.8624,0.8574,0.8509,0.8484,0.8443,0.843,0.8461,0.8456,0.845,0.8451,0.8439,0.8435,0.8419,0.842,0.842,0,0.9102,0.9079,0.9011,0.8987,0.8957,0.8919,0.8889,0.884,0.8811,0.875,0.8731,0.8681,0.8639,0.8565,0.8516,0.8466,0.8451,0.845,0.8443,0.8457,0.845,0.8452,0.8449,0.8452,0.8453,0.8453,0.8453,0,0.9109,0.9088,0.9048,0.9,0.8967,0.8926,0.8884,0.8866,0.8808,0.8777,0.8729,0.8697,0.8631,0.8582,0.8526,0.8492,0.8462,0.8456,0.8451,0.8464,0.8483,0.8473,0.8467,0.8456,0.8456,0.8456,0.8456,0.8455,0.9122,0.9099,0.9049,0.9006,0.8969,0.8931,0.8903,0.8863,0.8823,0.8767,0.874,0.8692,0.8639,0.8562,0.8528,0.8489,0.848,0.8473,0.8472,0.8471,0.8474,0.849,0.8479,0.8478,0.8478,0.8478,0.8478,0,0.9127,0.9093,0.9054,0.8997,0.8963,0.894,0.8892,0.8864,0.8823,0.8778,0.8737,0.8682,0.8634,0.8581,0.8529,0.8508,0.8493,0.8496,0.8497,0.8489,0.8485,0.8494,0.8509,0.8509,0.8509,0.8509,0.8509,0.8509,0.9126,0.9086,0.9059,0.9,0.8965,0.8919,0.8894,0.8857,0.8821,0.8762,0.8722,0.8689,0.8639,0.8584,0.8538,0.8524,0.8506,0.8513,0.8495,0.8492,0.8489,0.8487,0.8495,0.851,0.851,0.8502,0.8502,0.8501]}]]